[[{"header":{"parameterUnit":"m.s-1","parameterCategory":1,"la1":30.2991,"la2":30.254,"lo1":-89.0895,"lo2":-89.0444,"dy":0.0017,"dx":0.0017,"nx":28,"ny":28,"refTime":"2024-06-28T09:00:00:Z","depth":0,"parameterNumber":2,"parameterNumberName":"U-component_of_WINDS"},"data":[0,0,0,0,0,0,0,0,0,0,0,0,0,0,0,0,0,0,0,0,0,0,0,0,0,0,0,0,0,0,0,0,0,0,0,0,0,0,0,0,0,0,0,0,0,0,0,0,0,0,0,0,0,0,0,0,0,0,1.4176,1.4177,0,1.4258,1.4259,1.426,1.4315,1.4315,1.4316,1.4316,1.4401,1.4403,1.4405,0,0,0,0,0,0,0,0,0,0,0,0,0,1.4069,1.4071,1.4176,1.4177,1.4178,1.4258,1.4259,1.426,1.4315,1.4315,1.4316,1.4316,1.4401,1.4403,1.4405,0,0,0,0,0,0,0,0,0,0,0,0,0,1.413,1.4072,1.4176,1.4215,1.422,1.4257,1.4259,1.426,1.4315,1.4315,1.4316,1.4317,1.44,1.4403,1.4405,1.4411,0,0,1.4414,1.4415,0,0,0,0,0,0,0,0,1.4126,1.4134,1.4208,1.4213,1.4217,1.4277,1.4253,1.4311,1.4315,1.4279,1.4316,1.4317,1.4359,1.4366,1.438,1.4415,1.4419,1.4414,1.4416,1.4417,1.4418,0,0,0,0,0,0,0,1.4122,1.4131,1.4209,1.4209,1.4215,1.4229,1.4238,1.4264,1.4315,1.4282,1.4286,1.4295,1.4362,1.4377,1.4382,1.442,1.4414,1.4417,1.4419,1.442,1.4466,1.4465,0,0,0,0,0,0,1.4112,1.4127,1.4206,1.4211,1.4172,1.4231,1.4241,1.4257,1.4315,1.4324,1.4294,1.4297,1.4372,1.4379,1.4385,1.4397,1.4417,1.442,1.4422,1.4466,1.4465,1.4465,0,0,0,0,0,0,1.4109,1.4118,1.4203,1.417,1.4182,1.4232,1.425,1.4258,1.4273,1.4324,1.4334,1.43,1.4372,1.4381,1.4405,1.44,1.4421,1.4424,1.4467,1.4466,1.4465,1.4418,0,0,0,0,0,0,1.4106,1.4117,1.4119,1.417,1.4183,1.422,1.4249,1.426,1.4278,1.4282,1.4332,1.4341,1.4374,1.44,1.4407,1.4405,1.4426,1.4467,1.4466,1.4465,1.4421,1.4416,1.4412,0,0,0,0,0,1.4102,1.4103,1.4119,1.4128,1.4187,1.4219,1.4227,1.4265,1.4277,1.428,1.4313,1.4339,1.4399,1.4402,1.4411,1.4409,1.4468,1.4467,1.4465,1.4422,1.4417,1.4412,0,0,0,0,0,0,1.4051,1.411,1.4129,1.4146,1.4177,1.4229,1.4234,1.4258,1.4286,1.4289,1.4335,1.4346,1.4364,1.4389,1.4391,1.4418,1.4437,1.4437,1.4401,1.4396,1.4392,1.4386,1.4429,0,0,0,0,0,1.4042,1.4063,1.4113,1.4124,1.4139,1.4183,1.4199,1.4225,1.4259,1.4273,1.4307,1.434,1.4366,1.4383,1.441,1.4424,1.4436,1.4427,1.4423,1.4419,1.442,1.443,1.4426,1.4461,1.4461,1.4461,0,0,1.4023,1.4058,1.4069,1.4115,1.4142,1.4163,1.4194,1.4215,1.4231,1.4276,1.43,1.4326,1.4366,1.4385,1.4395,1.4406,1.4412,1.4418,1.4415,1.4417,1.4428,1.4425,1.4422,1.446,1.4461,1.4461,0,0,1.4,1.4028,1.4041,1.4067,1.4108,1.4137,1.414,1.4188,1.4207,1.4232,1.4266,1.4286,1.433,1.4357,1.4377,1.4364,1.4389,1.4371,1.435,1.4359,1.4356,1.4354,1.435,1.4348,1.4371,1.4371,1.4371,0,1.3972,1.4004,1.4044,1.4063,1.4082,1.4123,1.4136,1.416,1.4208,1.422,1.4232,1.4289,1.4318,1.4344,1.4341,1.4355,1.436,1.4366,1.4353,1.4352,1.435,1.4347,1.4345,1.4369,1.4369,1.4369,1.4369,0,1.3968,1.399,1.3995,1.404,1.406,1.4075,1.4118,1.4133,1.4158,1.4186,1.4211,1.4248,1.4283,1.4291,1.4315,1.4321,1.4326,1.4345,1.4365,1.4344,1.4341,1.434,1.4365,1.4366,1.4367,1.4367,0,0,1.3916,1.3981,1.3983,1.4004,1.4051,1.4069,1.4087,1.4121,1.4134,1.4165,1.4182,1.4218,1.4236,1.4258,1.4285,1.4293,1.4281,1.4311,1.4313,1.4305,1.429,1.4276,1.4273,1.4298,1.4298,1.4298,1.4287,0,1.39,1.3934,1.397,1.3991,1.4012,1.4052,1.4067,1.4099,1.4126,1.4148,1.4178,1.4204,1.4225,1.4238,1.4248,1.428,1.4279,1.4282,1.4314,1.4315,1.4303,1.4272,1.4257,1.4245,1.4286,1.4286,1.4286,0,1.3886,1.3915,1.3939,1.3985,1.3995,1.4008,1.4043,1.4063,1.41,1.4119,1.4143,1.4173,1.4194,1.4211,1.4241,1.4242,1.4258,1.4276,1.4276,1.4281,1.4299,1.4276,1.4242,1.424,1.4284,1.4284,1.4285,0,1.3846,1.3891,1.3911,1.3928,1.3982,1.399,1.4013,1.405,1.4069,1.4099,1.4111,1.4143,1.4161,1.4186,1.4223,1.4232,1.4249,1.4269,1.4266,1.4265,1.4268,1.4268,1.4236,1.4277,1.4277,1.4277,1.4277,0,1.3825,1.3838,1.3894,1.3906,1.3922,1.3963,1.3978,1.4004,1.4037,1.4055,1.4091,1.4108,1.4156,1.4178,1.4208,1.4228,1.4236,1.4252,1.426,1.4249,1.4247,1.426,1.4262,1.4277,1.4277,1.4277,1.4277,0,1.3783,1.3821,1.3845,1.3895,1.3907,1.3917,1.3959,1.3973,1.4002,1.4025,1.4033,1.4078,1.4107,1.4146,1.4187,1.4206,1.4223,1.4235,1.421,1.4215,1.421,1.421,1.4186,1.4185,1.4226,1.4225,1.4225,0,1.3767,1.3778,1.3829,1.3843,1.3865,1.3889,1.3907,1.3949,1.3967,1.4009,1.4018,1.4048,1.4075,1.4119,1.4156,1.4187,1.42,1.419,1.4205,1.4194,1.4201,1.42,1.4201,1.4186,1.4186,1.4185,1.4185,0,1.3736,1.3754,1.3779,1.3812,1.3833,1.386,1.3889,1.39,1.3947,1.3966,1.3995,1.4016,1.4057,1.4087,1.4123,1.4148,1.4174,1.4179,1.418,1.417,1.4155,1.4163,1.4201,1.418,1.418,1.4181,1.4181,1.4181,1.3707,1.3718,1.3756,1.3783,1.3809,1.3835,1.3851,1.3882,1.3907,1.3943,1.3966,1.3994,1.4031,1.4082,1.4105,1.4127,1.4138,1.414,1.414,1.414,1.4136,1.4151,1.4134,1.4134,1.4135,1.4135,1.4135,0,1.3677,1.3703,1.3728,1.3767,1.3789,1.3812,1.3845,1.3862,1.3886,1.3917,1.3943,1.3977,1.4006,1.4046,1.4078,1.4089,1.4102,1.4096,1.4096,1.4101,1.4125,1.4121,1.4085,1.4085,1.4085,1.4085,1.4085,1.4085,1.3664,1.3685,1.3708,1.3742,1.3768,1.3796,1.3813,1.3838,1.3863,1.3899,1.3924,1.3949,1.3984,1.4019,1.4047,1.4058,1.4069,1.4059,1.4073,1.4095,1.4099,1.4104,1.41,1.4061,1.4061,1.4048,1.4048,1.4048]},{"header":{"parameterUnit":"m.s-1","parameterCategory":1,"la1":30.2991,"la2":30.254,"lo1":-89.0895,"lo2":-89.0444,"dy":0.0017,"dx":0.0017,"nx":28,"ny":28,"refTime":"2024-06-28T09:00:00:Z","depth":0,"parameterNumber":3,"parameterNumberName":"V-component_of_WINDS"},"data":[0,0,0,0,0,0,0,0,0,0,0,0,0,0,0,0,0,0,0,0,0,0,0,0,0,0,0,0,0,0,0,0,0,0,0,0,0,0,0,0,0,0,0,0,0,0,0,0,0,0,0,0,0,0,0,0,0,0,3.5613,3.5613,0,3.5656,3.5656,3.5657,3.568,3.568,3.568,3.568,3.5719,3.572,3.5721,0,0,0,0,0,0,0,0,0,0,0,0,0,3.5546,3.5547,3.5613,3.5613,3.5614,3.5656,3.5656,3.5657,3.568,3.568,3.568,3.568,3.5719,3.572,3.5721,0,0,0,0,0,0,0,0,0,0,0,0,0,3.558,3.5547,3.5613,3.563,3.5632,3.5656,3.5656,3.5657,3.568,3.568,3.568,3.568,3.5719,3.572,3.5722,3.5729,0,0,3.5726,3.5727,0,0,0,0,0,0,0,0,3.5578,3.5583,3.5627,3.5629,3.5632,3.5663,3.5647,3.5681,3.568,3.5662,3.568,3.568,3.57,3.5703,3.5711,3.5731,3.5733,3.5726,3.5727,3.5728,3.5728,0,0,0,0,0,0,0,3.5576,3.5581,3.563,3.5628,3.563,3.5635,3.564,3.5654,3.568,3.5663,3.5665,3.567,3.5701,3.5709,3.5712,3.5733,3.5726,3.5728,3.5729,3.5729,3.5762,3.5762,0,0,0,0,0,0,3.5571,3.5579,3.5628,3.5631,3.5605,3.5636,3.5641,3.5652,3.568,3.5684,3.567,3.5671,3.5707,3.571,3.5713,3.5725,3.5728,3.5729,3.573,3.5762,3.5762,3.5762,0,0,0,0,0,0,3.557,3.5576,3.5627,3.5606,3.5612,3.5637,3.5649,3.5653,3.5662,3.5685,3.5689,3.5674,3.5707,3.5711,3.5726,3.5726,3.573,3.5731,3.5762,3.5762,3.5762,3.5747,0,0,0,0,0,0,3.5568,3.5575,3.5579,3.5606,3.5613,3.5639,3.5649,3.5654,3.5665,3.5666,3.569,3.5693,3.5707,3.5723,3.5727,3.5728,3.5733,3.5762,3.5762,3.5762,3.5747,3.5746,3.5745,0,0,0,0,0,3.5565,3.5572,3.5579,3.5585,3.5619,3.5639,3.5644,3.5661,3.5665,3.5668,3.5683,3.5693,3.5726,3.5724,3.5729,3.5731,3.5762,3.5762,3.5762,3.5748,3.5746,3.5745,0,0,0,0,0,0,3.5543,3.5576,3.5584,3.56,3.5617,3.5643,3.5648,3.5659,3.5674,3.5675,3.5694,3.5699,3.5711,3.5722,3.5721,3.574,3.5745,3.5746,3.5732,3.5731,3.573,3.5727,3.5734,0,0,0,0,0,3.554,3.5555,3.5582,3.5593,3.5601,3.5623,3.5633,3.5645,3.5662,3.5669,3.5685,3.5701,3.5715,3.5724,3.5738,3.5749,3.5754,3.5752,3.5751,3.575,3.5751,3.5757,3.5757,3.5762,3.5762,3.5762,0,0,3.5534,3.5553,3.5561,3.5589,3.5604,3.5618,3.5629,3.5643,3.5653,3.5671,3.5686,3.5698,3.5717,3.573,3.5736,3.5739,3.575,3.575,3.5749,3.575,3.5757,3.5757,3.5756,3.5762,3.5762,3.5762,0,0,3.5529,3.5546,3.5558,3.5572,3.5595,3.561,3.5612,3.5638,3.5647,3.5663,3.5676,3.5688,3.5711,3.5724,3.5734,3.5735,3.5744,3.5739,3.5733,3.574,3.5739,3.5739,3.5739,3.5739,3.5739,3.5739,3.5739,0,3.5518,3.5541,3.5561,3.5575,3.5587,3.5605,3.5616,3.5629,3.5654,3.5661,3.5665,3.5695,3.5709,3.5725,3.5726,3.5733,3.5736,3.5736,3.5738,3.5738,3.5738,3.5739,3.5739,3.5738,3.5738,3.5738,3.5739,0,3.5527,3.5542,3.5548,3.5575,3.5587,3.5599,3.5619,3.5629,3.564,3.5654,3.5669,3.5687,3.5705,3.5709,3.5719,3.5727,3.5728,3.5735,3.574,3.5736,3.5737,3.5738,3.5737,3.5737,3.5738,3.5738,0,0,3.5509,3.5547,3.5549,3.5561,3.5588,3.56,3.5612,3.5632,3.5639,3.5656,3.5667,3.5686,3.5693,3.5704,3.5715,3.5721,3.5721,3.5727,3.5727,3.5725,3.573,3.5725,3.5726,3.5727,3.5727,3.5727,3.5729,0,3.5509,3.5534,3.5553,3.5571,3.5585,3.5603,3.5614,3.563,3.5644,3.5657,3.5671,3.5685,3.5692,3.5699,3.5705,3.572,3.5722,3.572,3.5736,3.5736,3.5731,3.5726,3.5721,3.5721,3.5729,3.5729,3.5729,0,3.5512,3.553,3.555,3.5576,3.5582,3.5592,3.5611,3.5624,3.5643,3.5652,3.5665,3.5677,3.569,3.5694,3.5712,3.571,3.5717,3.5726,3.5726,3.5728,3.5733,3.5728,3.5722,3.5722,3.573,3.573,3.573,0,3.5497,3.5527,3.5543,3.5552,3.5583,3.5589,3.5602,3.5621,3.5632,3.5648,3.5655,3.5672,3.5681,3.5693,3.5709,3.5711,3.5725,3.5731,3.5732,3.5732,3.5734,3.5734,3.573,3.5739,3.5739,3.5739,3.5739,0,3.5495,3.5506,3.5537,3.5546,3.5559,3.558,3.5592,3.5605,3.5623,3.5634,3.565,3.566,3.5681,3.5693,3.5706,3.5718,3.5722,3.5729,3.5732,3.5728,3.5727,3.5733,3.5734,3.5739,3.5739,3.5739,3.5739,0,3.5481,3.5502,3.552,3.5548,3.5555,3.5564,3.5587,3.5596,3.5611,3.5625,3.563,3.5652,3.5667,3.5685,3.5705,3.5714,3.5725,3.573,3.572,3.5721,3.5722,3.5722,3.5722,3.5723,3.5731,3.5731,3.5731,0,3.5479,3.5488,3.5517,3.5527,3.554,3.5556,3.5567,3.5587,3.5598,3.5621,3.5627,3.5645,3.5659,3.5683,3.57,3.5716,3.5721,3.572,3.5723,3.5719,3.5721,3.572,3.5721,3.5719,3.5718,3.5718,3.5718,0,3.5472,3.5482,3.5499,3.5519,3.5533,3.5549,3.5566,3.5573,3.5597,3.5608,3.5625,3.5637,3.5659,3.5675,3.5693,3.5705,3.5715,3.5717,3.5718,3.5714,3.5708,3.5711,3.5717,3.5717,3.5717,3.5717,3.5717,3.5717,3.5463,3.5473,3.5496,3.5514,3.5529,3.5545,3.5555,3.5572,3.5587,3.5608,3.5618,3.5635,3.5654,3.568,3.5691,3.5703,3.5706,3.5708,3.5709,3.5709,3.5708,3.5706,3.5706,3.5706,3.5706,3.5706,3.5707,0,3.5458,3.5473,3.549,3.5514,3.5529,3.5539,3.5558,3.5569,3.5584,3.5601,3.5616,3.5636,3.5652,3.567,3.5687,3.5694,3.5699,3.5698,3.5697,3.57,3.5704,3.5701,3.5693,3.5693,3.5693,3.5693,3.5693,3.5693,3.5456,3.5473,3.5486,3.551,3.5525,3.5543,3.5554,3.5568,3.5582,3.5603,3.5618,3.563,3.5648,3.5666,3.5681,3.5686,3.5692,3.5689,3.5695,3.5698,3.5699,3.57,3.5698,3.569,3.569,3.569,3.569,3.569]}]]